Regional Weather Roundup
Issued by NWS

Home | Current Version | Previous Version | Graphics & Text | Print | Product List | Glossary Off
Versions: 1 2 3 4 5 6 7 8 9 10 11 12 13 14 15 16 17 18 19 20 21 22 23 24 25 26 27 28 29 30 31 32 33 34 35 36 37 38 39 40 41 42 43 44 45 46 47 48 49 50

000
ASUS43 KLMK 230310
RWRKY
KENTUCKY REGIONAL WEATHER ROUNDUP
NATIONAL WEATHER SERVICE LOUISVILLE KY
1100 PM EDT SUN OCT 22 2017

NOTE "FAIR" INDICATES FEW OR NO CLOUDS BELOW 12,000 FEET
WITH NO SIGNIFICANT WEATHER AND/OR OBSTRUCTIONS TO VISIBILITY.

KYZ001>023-026-027-061>063-070>075-230400-
WESTERN AND SOUTH CENTRAL KENTUCKY

CITY           SKY/WX    TMP DP  RH WIND       PRES   REMARKS
PADUCAH        HVY RAIN  59  56  89 N6        29.89F FOG
HENDERSON      RAIN      66  65  96 S3        29.94F
OWENSBORO      LGT RAIN  71  61  70 S10       29.95S
HOPKINSVILLE   MOCLDY    72  63  73 SE12      29.91F
BOWLING GREEN  CLOUDY    72  62  71 SE7       29.98F
GLASGOW        CLOUDY    70  58  65 SE7       30.00F
$$

KYZ024-025-028>034-038-045-046-053-230400-
NORTH CENTRAL KENTUCKY

CITY           SKY/WX    TMP DP  RH WIND       PRES   REMARKS
LOUISVILLE/SDF CLOUDY    70  58  65 SE9       30.00F
LOUISVILLE/LOU CLOUDY    70  58  65 SE9       30.01F
FORT KNOX      CLOUDY    69  58  66 SE7       29.99F
$$

KYZ035>037-039>044-047>052-055>060-089>105-230400-
NORTHEAST KENTUCKY

CITY           SKY/WX    TMP DP  RH WIND       PRES   REMARKS
LEXINGTON      CLOUDY    67  52  58 SE8       30.06F
COVINGTON      CLOUDY    67  53  61 SE10      30.04F
FRANKFORT      CLOUDY    67  52  58 SE7       30.04S
$$

KYZ054-064>069-076>088-106>120-230400-
SOUTHEAST KENTUCKY

CITY           SKY/WX    TMP DP  RH WIND       PRES   REMARKS
JACKSON        CLOUDY    67  51  56 VRB7      30.12F
LONDON         PTCLDY    64  51  62 SE5       30.10F
SOMERSET       CLOUDY    66  52  59 S5        30.09S
MIDDLESBORO    CLOUDY    60  56  84 CALM      30.14S
MONTICELLO     PTCLDY    68  56  65 E9        30.08F
$$





USA.gov is the U.S. government's official web portal to all federal, state and local government web resources and services.